Theta_e
310 310 310 310 309 308 308 309 310 310 311 311 311 312 312 312 312 312 313 312 312 312 312 313 313 313 311 305 305 318 323 323 318 320 319 312 308 310 311 312 314 312 314 317 318 318 319
309 309 309 309 309 309 309 310 310 310 311 311 311 312 312 312 312 312 313 312 313 313 312 313 313 313 308 297 313 314 314 314 316 315 318 316 312 314 313 314 313 315 316 316 317 316 318
309 310 310 309 309 309 310 309 309 309 310 310 311 311 312 312 312 311 312 312 312 312 312 313 313 312 305 302 311 312 313 312 313 312 310 316 316 313 314 311 316 315 311 314 315 316 314
310 310 310 309 309 309 310 310 310 310 310 310 311 312 311 311 311 312 312 312 312 312 313 314 314 311 301 310 312 309 310 309 312 313 313 314 316 314 312 315 313 309 311 305 312 314 315
310 310 310 310 310 310 310 310 310 311 311 311 312 312 311 311 312 312 313 312 312 313 313 313 311 308 300 313 307 309 310 306 309 311 312 313 311 308 310 305 304 308 302 305 307 314 313
309 309 309 310 310 310 310 310 310 310 311 311 312 311 311 311 311 312 311 311 313 312 312 314 311 302 305 300 304 308 312 310 306 307 307 307 305 302 303 303 297 301 302 304 304 310 312
308 310 310 310 310 309 309 310 310 310 311 311 311 311 311 311 311 310 310 310 305 304 308 302 300 301 302 305 307 304 307 306 307 304 299 304 299 295 299 303 305 305 304 304 307 311 309
308 309 309 309 309 309 309 309 310 310 310 310 310 311 311 311 311 311 310 303 303 303 296 302 301 301 303 304 297 301 305 300 301 298 300 300 296 301 303 304 303 302 302 302 307 310 309
309 308 308 309 309 309 309 310 310 310 311 311 311 311 310 311 310 309 306 305 309 308 295 297 301 300 301 303 298 298 302 300 296 297 299 296 300 303 302 301 300 301 300 302 303 308 309
309 309 309 309 310 310 309 310 310 310 310 311 311 311 311 310 306 308 304 308 309 309 290 292 296 299 302 303 298 304 305 300 297 294 298 298 302 301 300 299 301 298 304 304 304 303 298
309 309 309 309 310 310 310 309 309 310 310 310 310 310 310 309 307 304 306 310 310 305 278 293 296 307 303 299 300 301 308 302 294 294 296 294 298 298 298 300 303 300 305 304 304 301 301
308 308 308 308 309 309 309 309 309 310 310 310 310 309 308 310 310 309 311 310 306 288 278 290 296 294 296 299 298 301 301 305 303 296 296 297 302 302 301 303 304 305 302 303 304 301 294
308 307 307 308 308 308 308 308 308 309 309 310 310 308 307 310 304 311 310 302 286 281 290 287 289 293 292 293 294 296 294 295 293 290 289 293 296 301 304 300 303 303 300 293 292 293 293
307 308 308 308 307 308 308 307 308 308 308 309 308 306 307 311 309 311 306 292 282 286 287 292 292 291 288 291 292 293 292 290 295 294 293 288 286 296 302 300 299 300 300 294 288 291 294
307 307 307 307 307 307 307 306 306 307 307 307 306 311 307 311 312 309 297 285 284 288 291 289 291 287 288 290 290 291 291 290 293 295 290 291 289 298 300 303 302 299 298 303 298 301 296
306 306 307 307 307 306 306 305 306 307 307 306 308 306 307 311 312 306 295 286 289 293 293 292 285 289 285 287 287 289 288 294 291 294 295 295 290 296 299 303 303 301 305 296 299 291 291
306 306 306 307 307 305 305 306 306 307 306 306 306 301 309 312 310 300 289 289 291 294 295 291 288 287 288 287 289 287 288 293 294 293 296 295 292 295 298 298 297 298 299 300 301 299 294
305 306 306 306 307 306 307 306 306 306 305 306 305 296 307 310 296 297 290 292 294 293 295 293 293 291 289 290 288 288 288 292 296 295 292 297 294 290 295 301 303 302 301 301 298 296 300
305 305 306 306 306 306 306 306 307 306 305 305 300 301 309 307 290 291 293 293 293 292 292 292 290 293 294 291 286 290 291 295 295 293 293 296 293 287 291 299 301 299 301 303 303 304 299
305 306 306 306 307 307 306 306 307 306 306 305 302 294 301 304 297 291 290 291 290 295 293 293 292 294 290 290 293 290 290 293 295 295 297 295 293 292 288 294 299 297 299 302 303 298 300
305 305 305 305 306 307 307 307 306 306 306 305 302 296 297 292 293 291 292 291 289 289 295 295 292 291 291 287 289 289 291 293 294 296 294 293 290 293 293 296 298 299 299 301 301 302 300
305 305 305 305 306 306 307 307 307 307 306 305 297 295 298 295 294 291 291 290 289 291 292 291 291 292 292 290 291 288 290 292 289 292 293 294 290 295 289 294 297 297 300 301 302 303 303
305 305 305 305 305 305 307 307 307 307 306 303 305 301 296 293 294 291 292 290 290 292 294 295 293 292 291 293 296 298 298 297 295 293 292 291 293 293 287 292 293 293 299 301 302 305 304
304 305 305 305 305 305 306 306 307 307 307 307 305 302 294 290 293 292 292 293 292 293 290 295 294 292 297 301 301 300 299 298 297 296 297 292 292 295 288 291 286 298 305 305 303 304 306
303 304 304 304 304 305 306 306 307 308 308 305 307 301 295 289 293 293 293 291 294 294 293 295 296 300 302 298 294 292 292 293 294 297 296 297 293 289 287 288 296 298 304 302 301 302 309
303 303 303 304 304 304 305 306 306 307 308 306 306 307 300 291 294 295 293 292 290 292 294 296 301 303 302 294 291 286 285 288 288 292 297 296 297 291 290 288 285 297 305 308 309 299 309
304 304 303 303 304 304 304 305 306 307 308 307 306 311 301 292 298 296 292 291 294 292 291 294 295 296 300 290 288 286 287 293 287 287 289 291 292 290 289 290 294 300 307 308 297 297 309
305 304 304 304 304 304 304 305 305 306 307 306 306 312 302 296 299 301 300 296 295 293 289 296 293 295 296 288 288 288 288 290 290 291 291 290 288 291 292 291 288 303 305 301 303 308 310
305 305 305 305 305 304 304 305 305 306 306 307 303 310 309 298 299 305 305 306 303 300 294 293 293 292 296 291 293 290 289 290 289 285 293 288 290 289 292 290 297 302 302 305 307 306 310
Wind_Speed
14 14 14 14 14 15 16 15 15 15 15 16 16 17 17 18 19 19 17 18 18 17 16 16 14 14 13 12 17 8 9 11 11 13 21 24 29 29 33 28 28 34 31 29 30 30 29
13 13 14 15 15 15 15 15 16 17 16 17 18 18 18 17 18 18 17 17 18 18 18 16 13 11 15 23 10 10 12 12 14 14 15 23 29 29 32 32 33 30 32 34 32 31 29
16 16 15 16 16 16 17 17 17 17 17 17 17 17 17 17 18 19 18 19 19 21 20 17 15 12 17 22 18 18 12 15 16 15 18 15 23 29 26 33 29 32 35 33 32 30 32
17 17 17 15 16 16 16 16 17 17 16 17 18 17 18 19 20 20 20 20 22 23 22 20 13 14 13 16 17 20 21 22 20 18 19 19 15 24 28 23 27 34 31 30 30 32 28
17 16 16 16 16 17 18 18 18 18 18 18 17 17 18 20 20 22 22 26 27 21 13 9 11 14 20 3 17 14 19 19 17 20 18 17 18 20 20 24 22 26 28 37 30 29 28
16 15 15 16 16 17 18 18 17 18 18 19 18 18 18 19 20 21 22 29 19 10 12 11 13 9 20 15 4 3 5 9 15 17 20 19 17 19 20 22 29 30 34 30 33 27 29
15 17 17 17 18 18 18 18 18 19 19 19 19 18 18 18 20 21 20 16 4 10 15 14 14 14 23 9 10 12 11 8 12 14 24 25 17 28 43 36 32 31 26 32 32 28 31
16 17 17 18 19 18 18 18 19 19 20 21 22 22 21 20 21 22 15 11 8 7 14 22 26 29 27 25 24 20 16 17 16 19 22 25 31 44 27 33 32 34 32 34 29 28 23
17 17 18 19 19 19 20 19 19 19 19 20 20 20 21 20 22 15 10 10 7 9 11 24 25 24 20 20 25 23 22 22 23 23 25 29 41 26 32 32 33 33 34 30 31 24 23
17 18 18 18 18 19 21 22 22 21 22 21 21 21 20 19 16 12 9 8 8 8 10 20 12 7 9 9 13 16 20 25 25 29 23 27 31 33 34 35 34 33 30 29 27 22 20
18 19 19 19 19 19 20 21 22 22 21 22 22 23 20 12 13 10 9 8 10 3 9 6 9 8 5 10 3 4 14 16 24 25 23 32 26 34 37 41 32 36 25 26 25 21 23
18 19 19 18 20 19 19 19 21 21 21 22 23 22 18 7 10 8 12 6 6 8 5 4 8 13 15 15 6 10 9 14 11 20 29 31 27 29 37 33 28 30 28 26 21 18 21
17 18 18 19 19 19 19 19 21 22 22 23 25 20 11 8 9 10 9 5 6 8 7 10 13 14 14 23 13 12 10 14 14 17 21 31 31 29 29 28 36 29 26 18 20 19 23
16 17 17 18 19 19 18 19 20 22 22 24 25 20 7 5 4 10 7 4 9 11 11 18 19 20 20 20 16 7 11 16 17 14 19 22 26 34 27 29 32 33 28 17 33 15 19
17 17 18 19 18 20 20 20 21 22 23 25 28 9 2 7 6 3 4 7 7 12 15 15 21 17 18 19 17 14 17 16 6 6 8 16 28 29 34 25 26 38 29 33 24 24 18
18 18 18 18 18 20 21 21 22 22 23 25 10 6 5 5 5 4 4 7 11 14 14 17 20 11 15 20 6 16 6 1 2 4 3 14 12 27 30 32 33 32 27 25 21 28 22
18 18 18 17 17 19 20 21 21 22 23 28 8 3 7 6 5 4 5 8 15 14 14 10 20 20 18 15 18 15 13 7 4 6 8 17 6 15 30 32 32 25 27 30 22 19 15
19 18 18 18 17 17 17 17 19 19 22 14 7 4 6 6 3 4 5 16 16 14 14 15 11 16 16 16 14 15 18 8 6 9 14 14 9 17 17 26 30 31 30 31 19 27 17
19 19 19 17 16 16 16 17 17 17 14 10 7 3 7 1 5 8 15 19 9 13 15 10 10 15 17 19 8 8 2 7 4 9 4 8 12 17 5 18 32 30 33 26 27 18 19
19 18 19 19 17 15 16 18 18 17 15 8 4 5 3 1 4 9 13 15 17 13 12 12 18 10 6 15 11 8 10 3 3 15 9 7 12 21 9 7 18 29 32 29 28 15 17
20 20 20 19 18 17 17 18 18 16 17 7 5 4 4 6 8 10 14 15 15 14 13 20 13 14 16 16 17 5 7 15 2 5 4 4 14 23 15 16 27 28 26 27 30 24 17
19 20 20 19 19 18 17 18 17 15 17 7 3 6 8 13 8 10 11 12 15 18 16 14 16 20 18 18 16 16 14 12 3 4 5 6 12 16 19 15 26 18 30 26 23 26 18
18 19 19 19 19 18 17 18 17 12 10 4 2 6 3 10 10 6 9 12 18 17 12 13 17 19 18 17 18 20 20 19 13 15 11 5 8 10 14 16 26 17 21 22 23 25 20
18 18 19 19 19 18 17 17 17 12 9 5 3 3 4 8 11 9 15 17 15 18 18 22 11 9 11 20 24 23 23 21 20 18 14 12 12 9 9 11 10 10 11 12 19 19 18
19 19 20 19 20 19 17 16 17 15 9 8 2 3 2 8 14 15 14 16 19 15 13 15 10 10 12 14 12 10 11 14 18 17 16 14 6 6 5 13 10 6 7 12 15 16 9
20 20 20 19 19 19 18 17 16 15 11 9 5 4 4 5 6 18 15 12 15 12 13 12 15 9 8 6 8 9 4 4 1 7 11 11 6 2 4 9 4 6 8 6 7 12 11
19 21 21 20 20 19 19 18 17 16 14 9 7 7 3 6 12 10 12 9 10 9 10 14 14 9 1 3 4 6 6 15 5 5 8 7 4 9 9 7 9 13 17 2 12 8 6
19 20 21 21 20 21 19 18 17 16 15 9 7 8 6 5 17 13 9 12 11 7 6 11 11 4 4 4 3 5 5 5 6 2 8 5 4 5 6 5 3 21 5 7 6 7 8
19 20 20 21 20 20 20 19 17 16 14 10 10 3 5 4 13 20 20 17 11 12 5 3 5 6 3 4 3 3 3 3 7 2 6 3 4 6 6 4 8 8 13 13 11 7 10
Wind_Direction
17 14 12 11 7 6 4 356 353 351 347 340 338 340 337 332 329 326 325 321 317 309 308 306 310 312 302 237 243 126 181 219 272 223 223 221 224 229 234 232 240 243 246 251 260 269 263
19 16 15 12 6 3 358 353 355 350 346 344 341 339 333 331 327 323 317 313 308 304 302 300 293 293 261 264 279 293 298 276 259 266 228 229 232 233 242 241 243 249 257 261 261 261 264
19 15 11 10 5 1 357 355 352 348 344 341 337 335 332 328 324 320 316 309 302 297 297 291 284 268 269 258 292 295 266 264 264 266 262 244 245 245 242 248 250 257 260 262 258 256 253
18 17 10 6 5 1 355 350 347 344 339 335 330 328 328 326 322 316 309 301 294 291 289 285 265 246 261 277 268 255 252 249 247 248 253 280 271 252 247 262 250 251 253 257 249 253 251
12 10 5 0 2 359 352 351 349 348 345 340 334 331 326 322 319 315 311 302 297 288 267 247 211 218 263 174 232 251 253 259 258 238 237 242 257 253 233 240 252 236 243 240 251 247 250
7 4 1 2 2 359 352 350 349 345 342 339 338 335 328 324 320 313 307 293 277 283 224 204 242 228 239 261 254 258 237 225 245 244 225 220 229 237 233 218 227 228 237 243 255 251 244
7 7 3 2 360 358 352 351 349 347 344 340 337 333 327 324 318 309 309 289 224 210 221 263 295 224 298 237 266 245 257 236 249 232 224 204 212 219 221 219 235 243 248 247 249 247 239
7 6 3 360 357 355 352 351 350 346 342 339 336 332 328 324 317 310 289 326 356 326 292 279 270 262 260 271 274 260 259 247 230 232 220 217 219 221 224 231 231 243 251 250 262 263 257
1 359 0 354 351 351 352 350 349 344 339 333 328 325 323 321 313 287 312 313 333 310 273 276 263 255 248 235 246 244 239 232 241 228 229 221 229 228 230 232 235 233 235 243 253 263 265
359 357 356 350 347 349 349 349 347 342 337 333 328 324 319 329 286 327 295 5 276 336 281 266 195 196 176 226 252 231 237 228 237 236 240 236 237 236 225 233 229 236 229 242 254 260 258
358 355 355 349 346 347 344 343 342 339 334 330 325 323 316 307 306 301 350 309 337 306 277 100 118 111 190 230 350 119 208 235 235 237 230 241 228 230 240 227 231 243 237 238 240 247 262
352 352 351 345 344 343 340 340 337 335 330 327 324 325 319 271 229 305 298 317 262 238 261 15 59 346 258 229 241 173 227 206 259 241 254 248 246 241 230 242 230 238 239 242 241 239 244
346 347 347 344 343 340 337 342 338 333 331 329 327 327 299 308 334 332 308 268 253 263 345 41 353 318 326 293 248 244 260 277 241 215 235 244 248 247 242 222 236 222 224 224 227 225 244
345 346 344 346 344 339 340 343 336 333 333 329 324 314 196 356 316 307 295 290 257 357 13 347 338 316 279 282 274 307 263 257 252 256 282 233 224 234 231 230 216 223 214 217 214 217 234
345 346 347 349 346 344 345 346 340 336 334 330 309 228 256 32 331 309 309 262 341 2 343 329 316 306 284 250 269 226 260 260 359 6 295 281 234 228 229 227 239 208 215 217 243 230 245
344 346 347 346 345 344 346 347 343 336 333 326 305 284 57 7 326 255 272 309 325 353 340 317 307 297 321 313 244 253 280 311 261 262 327 288 287 227 229 215 237 238 209 207 221 240 247
347 347 346 345 344 346 344 346 342 336 333 315 262 276 82 331 285 273 308 316 326 335 316 329 313 306 305 299 296 288 280 148 192 289 228 276 269 273 223 211 213 213 216 211 222 231 235
346 345 345 346 345 346 338 342 334 338 336 315 280 314 71 294 313 302 295 322 295 303 310 323 314 308 303 314 301 277 261 13 187 295 293 253 283 267 283 220 216 214 216 200 224 216 236
345 345 345 344 345 345 340 330 328 338 345 327 303 291 136 250 337 329 314 312 320 326 320 321 292 299 317 309 290 285 47 2 355 295 307 1 243 250 278 254 198 225 205 208 216 230 207
344 344 346 344 341 338 333 331 335 332 335 304 307 323 345 297 343 312 326 311 327 321 310 308 302 314 250 300 311 294 340 153 253 259 297 314 269 261 251 248 207 214 206 204 203 214 193
342 344 345 345 340 336 334 329 336 333 327 298 340 280 345 308 322 321 297 282 296 323 331 313 304 307 316 323 312 357 322 312 325 277 262 242 264 240 254 301 304 208 216 203 195 210 219
336 340 342 344 340 338 335 329 334 334 323 260 4 337 334 296 282 304 307 300 324 328 327 310 315 315 321 304 317 319 323 311 230 261 246 247 271 278 225 263 285 262 208 212 203 201 228
332 335 338 339 339 336 334 330 334 334 324 334 56 283 287 279 267 280 301 320 304 312 309 311 312 311 305 311 313 303 291 285 265 263 278 266 286 254 220 234 271 234 203 211 197 194 216
330 333 335 337 337 336 333 331 330 327 323 312 335 295 282 292 310 310 301 302 317 309 296 299 318 301 301 316 304 271 252 248 245 245 246 257 294 292 209 237 226 213 208 231 203 193 203
328 330 331 333 337 336 333 331 327 324 312 287 161 268 282 284 320 291 343 315 308 294 287 308 320 330 313 297 287 283 222 220 223 222 222 239 274 299 166 216 93 166 63 200 216 163 46
324 326 328 329 335 336 332 332 326 324 317 284 259 207 250 297 269 337 316 325 299 331 314 337 335 337 311 304 301 285 311 292 225 307 178 213 210 269 281 247 173 305 23 4 302 115 32
320 323 323 324 326 331 331 328 327 321 318 286 277 189 247 262 270 307 309 307 305 310 292 303 341 318 21 327 301 314 318 345 30 316 179 196 238 251 274 241 114 343 338 306 216 76 29
315 317 318 319 321 323 327 328 324 318 317 302 279 188 232 261 295 286 304 289 289 284 285 317 319 0 319 326 314 339 329 349 300 297 331 192 264 218 256 248 76 341 51 23 32 45 37
313 313 314 315 316 318 322 325 323 317 309 309 270 202 214 235 280 300 287 276 274 273 273 286 296 318 328 311 339 308 304 296 316 45 352 358 348 319 21 53 303 21 51 39 22 30 11